[[{"header":{"parameterUnit":"m.s-1","parameterCategory":1,"la1":30.2991,"la2":30.254,"lo1":-89.0895,"lo2":-89.0444,"dy":0.0017,"dx":0.0017,"nx":28,"ny":28,"refTime":"2023-10-01T09:00:00:Z","depth":0,"parameterNumber":2,"parameterNumberName":"U-component_of_WINDS"},"data":[0,0,0,0,0,0,0,0,0,0,0,0,0,0,0,0,0,0,0,0,0,0,0,0,0,0,0,0,0,0,0,0,0,0,0,0,0,0,0,0,0,0,0,0,0,0,0,0,0,0,0,0,0,0,0,0,0,0,-3.638,-3.638,0,-3.637,-3.637,-3.637,-3.6218,-3.6214,-3.6211,-3.6207,-3.6199,-3.6202,-3.6205,0,0,0,0,0,0,0,0,0,0,0,0,0,-3.6269,-3.6272,-3.638,-3.638,-3.638,-3.637,-3.637,-3.637,-3.6219,-3.6214,-3.621,-3.6205,-3.6197,-3.6201,-3.6205,0,0,0,0,0,0,0,0,0,0,0,0,0,-3.6294,-3.6273,-3.638,-3.6303,-3.6296,-3.637,-3.637,-3.637,-3.622,-3.6214,-3.6208,-3.6203,-3.6196,-3.6201,-3.6206,-3.6353,0,0,-3.6222,-3.6224,0,0,0,0,0,0,0,0,-3.6293,-3.6299,-3.6315,-3.6309,-3.6301,-3.6289,-3.6328,-3.6364,-3.6221,-3.6249,-3.6207,-3.62,-3.6234,-3.6235,-3.6246,-3.6353,-3.6352,-3.6222,-3.6225,-3.6227,-3.6229,0,0,0,0,0,0,0,-3.6292,-3.6298,-3.6376,-3.6315,-3.6307,-3.627,-3.6267,-3.6334,-3.6274,-3.6246,-3.6235,-3.6236,-3.6229,-3.6242,-3.6245,-3.6352,-3.6222,-3.6226,-3.6229,-3.6231,-3.6579,-3.6585,0,0,0,0,0,0,-3.63,-3.6298,-3.6376,-3.6376,-3.6283,-3.6276,-3.6273,-3.6299,-3.6273,-3.6263,-3.6241,-3.6229,-3.6236,-3.6239,-3.6244,-3.6415,-3.6227,-3.6232,-3.6235,-3.6573,-3.658,-3.6587,0,0,0,0,0,0,-3.6299,-3.6309,-3.6377,-3.6334,-3.6339,-3.6284,-3.6315,-3.6302,-3.6314,-3.6269,-3.6257,-3.6265,-3.6231,-3.6237,-3.6327,-3.6412,-3.6234,-3.6239,-3.6566,-3.6575,-3.6584,-3.6757,0,0,0,0,0,0,-3.6296,-3.6309,-3.6364,-3.6336,-3.6342,-3.646,-3.632,-3.6306,-3.6323,-3.6308,-3.6288,-3.628,-3.6227,-3.632,-3.6332,-3.6416,-3.6243,-3.6558,-3.657,-3.6581,-3.6744,-3.6772,-3.6795,0,0,0,0,0,-3.6293,-3.6414,-3.6368,-3.6378,-3.641,-3.6465,-3.6469,-3.6406,-3.6331,-3.6386,-3.6357,-3.628,-3.6401,-3.6331,-3.6343,-3.643,-3.6552,-3.6566,-3.658,-3.6732,-3.6766,-3.6795,0,0,0,0,0,0,-3.6454,-3.6409,-3.6357,-3.6473,-3.6474,-3.644,-3.6507,-3.6443,-3.6466,-3.6451,-3.6372,-3.6369,-3.6471,-3.6459,-3.6382,-3.657,-3.6463,-3.648,-3.6575,-3.6607,-3.6632,-3.6633,-3.6247,0,0,0,0,0,-3.6503,-3.6552,-3.6509,-3.6615,-3.6619,-3.6564,-3.6585,-3.6536,-3.6534,-3.6534,-3.6511,-3.6513,-3.6551,-3.6578,-3.661,-3.6741,-3.6735,-3.6806,-3.6832,-3.6853,-3.687,-3.6938,-3.697,-3.6633,-3.6633,-3.6632,0,0,-3.6605,-3.6586,-3.6622,-3.6647,-3.6643,-3.6695,-3.6565,-3.6625,-3.6664,-3.6543,-3.6627,-3.6611,-3.6607,-3.6719,-3.6766,-3.6712,-3.6961,-3.6871,-3.6889,-3.6893,-3.6956,-3.6988,-3.7016,-3.6642,-3.6641,-3.6639,0,0,-3.6818,-3.6808,-3.6896,-3.6893,-3.6887,-3.685,-3.6871,-3.6846,-3.683,-3.6913,-3.6824,-3.6868,-3.6935,-3.6937,-3.6946,-3.7159,-3.709,-3.7172,-3.7306,-3.7374,-3.7401,-3.7424,-3.7501,-3.7529,-3.7188,-3.7188,-3.7188,0,-3.6946,-3.702,-3.6949,-3.7016,-3.703,-3.6922,-3.7011,-3.7012,-3.7018,-3.703,-3.6968,-3.705,-3.704,-3.7151,-3.7203,-3.7214,-3.7236,-3.7174,-3.7403,-3.7425,-3.7446,-3.7518,-3.7547,-3.7198,-3.7197,-3.7196,-3.7195,0,-3.7178,-3.7231,-3.7303,-3.731,-3.7332,-3.7409,-3.735,-3.7381,-3.733,-3.7299,-3.7385,-3.7369,-3.7397,-3.7419,-3.737,-3.7523,-3.7489,-3.7416,-3.7307,-3.7489,-3.7556,-3.7583,-3.7213,-3.7209,-3.7206,-3.7203,0,0,-3.7494,-3.746,-3.7487,-3.7489,-3.7475,-3.7515,-3.7587,-3.7613,-3.7642,-3.7649,-3.7708,-3.7767,-3.77,-3.7711,-3.7661,-3.772,-3.7891,-3.764,-3.7638,-3.7688,-3.8059,-3.8115,-3.8148,-3.7844,-3.7849,-3.7853,-3.806,0,-3.7699,-3.7821,-3.7759,-3.7888,-3.7937,-3.7835,-3.7898,-3.7897,-3.787,-3.7907,-3.7877,-3.792,-3.7827,-3.7833,-3.7888,-3.7859,-3.7965,-3.7843,-3.79,-3.7903,-3.7905,-3.8183,-3.8242,-3.8437,-3.8085,-3.8089,-3.8093,0,-3.7956,-3.7974,-3.8108,-3.8084,-3.8102,-3.816,-3.8179,-3.8216,-3.8212,-3.8188,-3.82,-3.8136,-3.8206,-3.8097,-3.8193,-3.8111,-3.8131,-3.812,-3.8126,-3.813,-3.801,-3.8195,-3.8498,-3.8528,-3.8133,-3.813,-3.8127,0,-3.8174,-3.8231,-3.8319,-3.8324,-3.8298,-3.8341,-3.8332,-3.8322,-3.8342,-3.8358,-3.8371,-3.8396,-3.841,-3.8431,-3.8376,-3.8301,-3.8479,-3.8365,-3.8462,-3.8464,-3.8505,-3.8504,-3.8817,-3.8517,-3.8516,-3.8516,-3.8515,0,-3.8411,-3.8498,-3.8416,-3.8471,-3.8565,-3.8492,-3.8587,-3.8567,-3.856,-3.8609,-3.8522,-3.857,-3.8493,-3.8534,-3.8491,-3.8577,-3.8584,-3.8567,-3.8555,-3.8576,-3.8578,-3.8588,-3.8574,-3.8523,-3.8522,-3.852,-3.8519,0,-3.8671,-3.862,-3.8709,-3.8677,-3.867,-3.8742,-3.8714,-3.8763,-3.8729,-3.8793,-3.8803,-3.8752,-3.8795,-3.8741,-3.878,-3.8751,-3.8869,-3.8835,-3.887,-3.8861,-3.8961,-3.8953,-3.9293,-3.9334,-3.9007,-3.901,-3.9013,0,-3.8826,-3.889,-3.8865,-3.8891,-3.8887,-3.8931,-3.895,-3.8881,-3.8905,-3.8905,-3.8955,-3.899,-3.9015,-3.9089,-3.9056,-3.9085,-3.9052,-3.9169,-3.9056,-3.9075,-3.9055,-3.9053,-3.9059,-3.9193,-3.9197,-3.92,-3.9203,0,-3.9108,-3.9079,-3.911,-3.9133,-3.9158,-3.9173,-3.9181,-3.9208,-3.9136,-3.9167,-3.921,-3.923,-3.9268,-3.9306,-3.9325,-3.9316,-3.9249,-3.9238,-3.9262,-3.9285,-3.9303,-3.9296,-3.8934,-3.9231,-3.9228,-3.9226,-3.9225,-3.9224,-3.932,-3.9373,-3.9363,-3.94,-3.9399,-3.9409,-3.9453,-3.9425,-3.946,-3.9485,-3.9442,-3.9497,-3.9491,-3.951,-3.9509,-3.9551,-3.9501,-3.9536,-3.9545,-3.9555,-3.957,-3.9295,-3.9554,-3.9553,-3.9553,-3.9552,-3.9551,0,-3.9598,-3.9586,-3.9622,-3.9636,-3.9666,-3.9597,-3.9603,-3.9633,-3.9681,-3.9681,-3.9707,-3.9757,-3.9792,-3.9761,-3.979,-3.983,-3.9799,-3.984,-3.9837,-3.9836,-3.9613,-3.959,-3.9864,-3.9864,-3.9864,-3.9864,-3.9864,-3.9864,-3.9746,-3.9831,-3.9802,-3.9885,-3.9873,-3.9925,-3.9934,-3.9943,-3.9942,-4.0001,-4.003,-4.0008,-3.9996,-4.0023,-4.0053,-4.0043,-4.0058,-4.0111,-4.009,-3.9882,-3.9852,-3.9823,-3.98,-4.0114,-4.0114,-4.0309,-4.0311,-4.0312]},{"header":{"parameterUnit":"m.s-1","parameterCategory":1,"la1":30.2991,"la2":30.254,"lo1":-89.0895,"lo2":-89.0444,"dy":0.0017,"dx":0.0017,"nx":28,"ny":28,"refTime":"2023-10-01T09:00:00:Z","depth":0,"parameterNumber":3,"parameterNumberName":"V-component_of_WINDS"},"data":[0,0,0,0,0,0,0,0,0,0,0,0,0,0,0,0,0,0,0,0,0,0,0,0,0,0,0,0,0,0,0,0,0,0,0,0,0,0,0,0,0,0,0,0,0,0,0,0,0,0,0,0,0,0,0,0,0,0,1.2967,1.2966,0,1.29,1.2899,1.2898,1.2879,1.288,1.288,1.288,1.2806,1.2804,1.2801,0,0,0,0,0,0,0,0,0,0,0,0,0,1.3075,1.3073,1.2967,1.2966,1.2966,1.29,1.2899,1.2898,1.2879,1.288,1.288,1.2881,1.2807,1.2804,1.2801,0,0,0,0,0,0,0,0,0,0,0,0,0,1.302,1.3073,1.2967,1.2948,1.2946,1.29,1.2899,1.2898,1.2879,1.288,1.288,1.2881,1.2808,1.2804,1.2801,1.2768,0,0,1.279,1.2789,0,0,0,0,0,0,0,0,1.3023,1.3016,1.2952,1.2949,1.2947,1.2899,1.291,1.2854,1.2879,1.2904,1.288,1.2881,1.2836,1.283,1.2816,1.2764,1.2761,1.279,1.2788,1.2786,1.2785,0,0,0,0,0,0,0,1.3027,1.3019,1.294,1.2951,1.2948,1.2942,1.2935,1.2899,1.2867,1.2902,1.2901,1.2893,1.2835,1.282,1.2814,1.276,1.279,1.2787,1.2785,1.2783,1.2678,1.2677,0,0,0,0,0,0,1.3035,1.3022,1.2943,1.2938,1.2987,1.2939,1.2931,1.2913,1.2868,1.2862,1.2893,1.2893,1.2825,1.2818,1.2812,1.277,1.2786,1.2783,1.2781,1.2678,1.2678,1.2677,0,0,0,0,0,0,1.3037,1.3028,1.2945,1.298,1.2969,1.2937,1.2917,1.2912,1.2897,1.2861,1.2855,1.2883,1.2825,1.2816,1.2779,1.2767,1.2781,1.2778,1.2679,1.2678,1.2677,1.2686,0,0,0,0,0,0,1.304,1.3029,1.3017,1.298,1.2967,1.2915,1.2916,1.291,1.2891,1.289,1.285,1.2844,1.2825,1.2785,1.2776,1.2762,1.2775,1.268,1.2679,1.2677,1.2686,1.2685,1.2684,0,0,0,0,0,1.3044,1.302,1.3016,1.3006,1.2952,1.2914,1.2907,1.2887,1.289,1.2877,1.2855,1.2846,1.277,1.2781,1.2771,1.2756,1.2681,1.2679,1.2678,1.2687,1.2685,1.2684,0,0,0,0,0,0,1.3054,1.3015,1.301,1.2974,1.2948,1.2911,1.2894,1.2886,1.2857,1.2857,1.2832,1.2823,1.2788,1.2768,1.2781,1.2722,1.2725,1.2721,1.2735,1.2734,1.2733,1.2737,1.2772,0,0,0,0,0,1.3052,1.3027,1.2994,1.2965,1.2953,1.2926,1.2909,1.2896,1.2868,1.2856,1.283,1.2802,1.2771,1.2752,1.2722,1.2684,1.2675,1.2669,1.2668,1.2667,1.2664,1.2642,1.2639,1.2672,1.2672,1.2672,0,0,1.3047,1.3023,1.3008,1.2966,1.2945,1.2918,1.2916,1.2888,1.2867,1.2851,1.2814,1.2795,1.2761,1.2724,1.2706,1.2706,1.2653,1.2665,1.2665,1.2662,1.264,1.2637,1.2635,1.2671,1.2671,1.2671,0,0,1.3025,1.3005,1.2979,1.2958,1.2927,1.2909,1.2903,1.2869,1.2856,1.2819,1.2807,1.2782,1.273,1.2707,1.2688,1.266,1.265,1.2651,1.2644,1.2623,1.2621,1.2618,1.2607,1.2604,1.2648,1.2648,1.2648,0,1.3023,1.2983,1.2966,1.2938,1.292,1.2907,1.288,1.286,1.282,1.2807,1.2809,1.2745,1.2721,1.2678,1.2672,1.2657,1.2649,1.2654,1.2623,1.262,1.2618,1.2607,1.2603,1.2648,1.2648,1.2648,1.2648,0,1.2981,1.2954,1.2937,1.2901,1.2881,1.2853,1.2831,1.2813,1.2802,1.2785,1.2748,1.272,1.2684,1.2674,1.2662,1.2629,1.2631,1.2628,1.2631,1.2615,1.2605,1.26,1.2649,1.2648,1.2648,1.2648,0,0,1.296,1.2917,1.2911,1.2895,1.286,1.2838,1.2811,1.2778,1.2763,1.2736,1.2711,1.2669,1.2668,1.2647,1.2633,1.2615,1.2594,1.2615,1.2614,1.2611,1.2555,1.2556,1.2552,1.2589,1.2588,1.2587,1.2558,0,1.2932,1.2884,1.2869,1.2828,1.2802,1.2791,1.2767,1.2743,1.2726,1.2701,1.2682,1.2653,1.2653,1.264,1.2623,1.2601,1.2582,1.2603,1.2564,1.2563,1.2571,1.2546,1.2546,1.252,1.2554,1.2553,1.2552,0,1.2893,1.2868,1.2825,1.2795,1.2784,1.2763,1.2732,1.2709,1.2681,1.2671,1.2649,1.2637,1.2607,1.2613,1.2571,1.2585,1.2569,1.2556,1.2554,1.2548,1.2555,1.2538,1.2511,1.2506,1.2546,1.2546,1.2547,0,1.288,1.2836,1.2805,1.2792,1.2756,1.2742,1.2726,1.2699,1.2681,1.2654,1.2642,1.2612,1.2594,1.2571,1.2551,1.2558,1.251,1.2515,1.2499,1.2499,1.2487,1.2488,1.2455,1.248,1.248,1.248,1.248,0,1.285,1.2824,1.2799,1.278,1.275,1.2733,1.2704,1.2687,1.2664,1.264,1.2629,1.2607,1.2583,1.2557,1.2542,1.2508,1.2501,1.249,1.2486,1.249,1.2491,1.2477,1.2478,1.2479,1.2479,1.2479,1.2479,0,1.283,1.2813,1.2778,1.2748,1.274,1.272,1.2694,1.2674,1.2659,1.2629,1.2621,1.2595,1.2565,1.2544,1.2504,1.2493,1.2457,1.2454,1.2467,1.2464,1.2449,1.245,1.2405,1.2398,1.2429,1.2429,1.2428,0,1.281,1.279,1.276,1.2744,1.2729,1.2704,1.2686,1.2669,1.2651,1.2619,1.2603,1.2573,1.2547,1.2499,1.2476,1.2445,1.244,1.2427,1.2435,1.244,1.2438,1.2439,1.2437,1.2424,1.2424,1.2424,1.2424,0,1.2777,1.2771,1.2746,1.272,1.27,1.2678,1.2655,1.2642,1.2621,1.2601,1.2572,1.2552,1.2513,1.2482,1.245,1.2433,1.2424,1.2422,1.2416,1.2419,1.2427,1.2422,1.2461,1.2422,1.2422,1.2423,1.2423,1.2423,1.2756,1.2738,1.2714,1.2688,1.267,1.265,1.263,1.2613,1.2589,1.2557,1.2548,1.2517,1.249,1.2447,1.2429,1.2404,1.2404,1.2397,1.2394,1.2392,1.2392,1.2434,1.2398,1.2398,1.2398,1.2398,1.2398,0,1.2721,1.2706,1.2683,1.2653,1.2632,1.263,1.2605,1.2587,1.256,1.2538,1.2514,1.248,1.2451,1.2427,1.2396,1.238,1.2376,1.2373,1.2372,1.2368,1.2393,1.2401,1.2377,1.2377,1.2377,1.2377,1.2377,1.2377,1.27,1.267,1.2661,1.2621,1.2606,1.2577,1.2563,1.2544,1.2526,1.2489,1.2465,1.2451,1.2428,1.2396,1.2369,1.2363,1.2351,1.2349,1.2341,1.2364,1.2367,1.2369,1.2376,1.2347,1.2347,1.2319,1.2318,1.2318]}]]